Time,TemperatureF,DewpointF,PressureIn,WindDirection,WindDirectionDegrees,WindSpeedMPH,WindSpeedGustMPH,Humidity,HourlyPrecipIn,Conditions,Clouds,dailyrainin,SoftwareType,DateUTC
2013-02-07 00:00:00,73.2,63.5,30.13,ESE,112,1.9,6.3,71,0.00,,,0.00,Rainwise IP-100,2013-02-07 05:00:00,
2013-02-07 00:05:00,73.1,63.0,30.13,ESE,112,6.8,8.4,71,0.00,,,0.00,Rainwise IP-100,2013-02-07 05:05:00,
2013-02-07 00:10:00,73.2,63.0,30.12,ESE,112,4.9,13.1,70,0.00,,,0.00,Rainwise IP-100,2013-02-07 05:10:00,
2013-02-07 00:15:00,73.3,62.5,30.13,ENE,67,5.1,11.9,69,0.00,,,0.00,Rainwise IP-100,2013-02-07 05:15:00,
2013-02-07 00:20:00,73.3,63.0,30.12,SSW,202,1.9,10.3,70,0.00,,,0.00,Rainwise IP-100,2013-02-07 05:20:00,
2013-02-07 00:25:00,73.2,63.5,30.12,SE,135,7.9,7.9,71,0.00,,,0.00,Rainwise IP-100,2013-02-07 05:25:00,
2013-02-07 00:31:00,73.2,63.5,30.12,SSE,157,3.0,12.6,71,0.00,,,0.00,Rainwise IP-100,2013-02-07 05:31:00,
2013-02-07 00:36:00,73.1,63.0,30.11,ENE,67,0.0,9.1,71,0.00,,,0.00,Rainwise IP-100,2013-02-07 05:36:00,
2013-02-07 00:41:00,73.1,63.5,30.12,ESE,112,3.3,9.8,72,0.00,,,0.00,Rainwise IP-100,2013-02-07 05:41:00,
2013-02-07 00:46:00,73.1,63.5,30.11,ENE,67,3.7,7.0,72,0.00,,,0.00,Rainwise IP-100,2013-02-07 05:46:00,
2013-02-07 00:51:00,73.1,63.5,30.12,East,90,3.5,7.2,72,0.00,,,0.00,Rainwise IP-100,2013-02-07 05:51:00,
2013-02-07 00:56:00,73.1,64.0,30.12,ENE,67,6.5,8.2,73,0.00,,,0.00,Rainwise IP-100,2013-02-07 05:56:00,
2013-02-07 01:01:00,73.1,64.0,30.11,ESE,112,1.4,7.7,73,0.00,,,0.00,Rainwise IP-100,2013-02-07 06:01:00,
2013-02-07 01:06:00,73.0,64.0,30.12,SE,135,2.8,7.0,73,0.00,,,0.00,Rainwise IP-100,2013-02-07 06:06:00,
2013-02-07 01:12:00,72.9,63.5,30.11,SSE,157,3.0,11.4,72,0.00,,,0.00,Rainwise IP-100,2013-02-07 06:12:00,
2013-02-07 01:17:00,72.9,63.5,30.12,South,180,3.3,7.9,72,0.00,,,0.00,Rainwise IP-100,2013-02-07 06:17:00,
2013-02-07 01:22:00,72.9,63.5,30.12,East,90,3.7,8.6,72,0.00,,,0.00,Rainwise IP-100,2013-02-07 06:22:00,
2013-02-07 01:27:00,72.8,63.0,30.12,East,90,4.7,8.9,72,0.00,,,0.00,Rainwise IP-100,2013-02-07 06:27:00,
2013-02-07 01:32:00,72.8,63.0,30.12,SSE,157,0.0,7.9,72,0.00,,,0.00,Rainwise IP-100,2013-02-07 06:32:00,
2013-02-07 01:37:00,72.9,63.5,30.11,ESE,112,6.3,12.1,72,0.00,,,0.00,Rainwise IP-100,2013-02-07 06:37:00,
2013-02-07 01:42:00,72.8,63.5,30.11,ESE,112,6.5,9.8,73,0.00,,,0.00,Rainwise IP-100,2013-02-07 06:42:00,
2013-02-07 01:47:00,72.8,63.5,30.11,ESE,112,2.6,9.1,73,0.00,,,0.00,Rainwise IP-100,2013-02-07 06:47:00,
2013-02-07 01:52:00,72.8,63.5,30.11,ESE,112,6.3,11.4,73,0.00,,,0.00,Rainwise IP-100,2013-02-07 06:52:00,
2013-02-07 01:58:00,72.7,63.5,30.11,SSE,157,6.3,13.5,73,0.00,,,0.00,Rainwise IP-100,2013-02-07 06:58:00,
2013-02-07 02:03:00,72.8,63.5,30.10,ESE,112,5.1,12.1,73,0.00,,,0.00,Rainwise IP-100,2013-02-07 07:03:00,
2013-02-07 02:08:00,72.8,63.5,30.11,SE,135,0.0,12.4,73,0.00,,,0.00,Rainwise IP-100,2013-02-07 07:08:00,
2013-02-07 02:13:00,72.8,63.5,30.10,SE,135,4.9,8.9,73,0.00,,,0.00,Rainwise IP-100,2013-02-07 07:13:00,
2013-02-07 02:18:00,72.8,63.0,30.10,ESE,112,5.6,12.4,72,0.00,,,0.00,Rainwise IP-100,2013-02-07 07:18:00,
2013-02-07 02:23:00,72.8,63.5,30.11,ESE,112,1.9,9.3,73,0.00,,,0.00,Rainwise IP-100,2013-02-07 07:23:00,
2013-02-07 02:28:00,72.7,63.5,30.10,SSE,157,2.6,8.6,73,0.00,,,0.00,Rainwise IP-100,2013-02-07 07:28:00,
2013-02-07 02:34:00,72.6,63.5,30.10,SSW,202,7.5,8.2,73,0.00,,,0.00,Rainwise IP-100,2013-02-07 07:34:00,
2013-02-07 02:39:00,72.6,63.5,30.10,ESE,112,6.8,10.0,73,0.00,,,0.00,Rainwise IP-100,2013-02-07 07:39:00,
2013-02-07 02:44:00,72.6,63.5,30.10,ESE,112,5.4,8.6,73,0.00,,,0.00,Rainwise IP-100,2013-02-07 07:44:00,
2013-02-07 02:49:00,72.6,63.0,30.10,ESE,112,6.8,11.4,72,0.00,,,0.00,Rainwise IP-100,2013-02-07 07:49:00,
2013-02-07 02:54:00,72.6,63.0,30.10,SE,135,5.4,12.1,72,0.00,,,0.00,Rainwise IP-100,2013-02-07 07:54:00,
2013-02-07 02:59:00,72.6,63.0,30.10,East,90,4.2,9.3,72,0.00,,,0.00,Rainwise IP-100,2013-02-07 07:59:00,
2013-02-07 03:04:00,72.5,63.0,30.10,SE,135,2.1,10.0,72,0.00,,,0.00,Rainwise IP-100,2013-02-07 08:04:00,
2013-02-07 03:09:00,72.5,63.5,30.09,ENE,67,9.6,9.6,73,0.00,,,0.00,Rainwise IP-100,2013-02-07 08:09:00,
2013-02-07 03:15:00,72.5,63.5,30.09,South,180,3.3,7.7,73,0.00,,,0.00,Rainwise IP-100,2013-02-07 08:15:00,
2013-02-07 03:20:00,72.5,63.5,30.09,ESE,112,3.3,9.3,73,0.00,,,0.00,Rainwise IP-100,2013-02-07 08:20:00,
2013-02-07 03:25:00,72.5,63.0,30.09,SSE,157,3.0,9.8,72,0.00,,,0.00,Rainwise IP-100,2013-02-07 08:25:00,
2013-02-07 03:30:00,72.5,63.0,30.09,ESE,112,2.6,11.4,72,0.00,,,0.00,Rainwise IP-100,2013-02-07 08:30:00,
2013-02-07 03:35:00,72.5,63.0,30.10,ESE,112,5.8,7.2,72,0.00,,,0.00,Rainwise IP-100,2013-02-07 08:35:00,
2013-02-07 03:40:00,72.5,63.0,30.10,ESE,112,2.6,8.9,72,0.00,,,0.00,Rainwise IP-100,2013-02-07 08:40:00,
2013-02-07 03:45:00,72.4,63.0,30.09,SSE,157,4.7,7.7,72,0.00,,,0.00,Rainwise IP-100,2013-02-07 08:45:00,
2013-02-07 03:51:00,72.3,63.0,30.09,SE,135,5.4,7.7,72,0.00,,,0.00,Rainwise IP-100,2013-02-07 08:51:00,
2013-02-07 03:56:00,72.3,63.0,30.09,ESE,112,1.4,8.2,72,0.00,,,0.00,Rainwise IP-100,2013-02-07 08:56:00,
2013-02-07 04:01:00,72.3,63.0,30.09,ESE,112,7.2,7.9,72,0.00,,,0.00,Rainwise IP-100,2013-02-07 09:01:00,
2013-02-07 04:06:00,72.4,63.0,30.09,SE,135,6.5,10.7,72,0.00,,,0.00,Rainwise IP-100,2013-02-07 09:06:00,
2013-02-07 04:11:00,72.4,63.0,30.09,East,90,1.6,10.5,72,0.00,,,0.00,Rainwise IP-100,2013-02-07 09:11:00,
2013-02-07 04:16:00,72.4,63.0,30.09,ESE,112,2.8,7.0,72,0.00,,,0.00,Rainwise IP-100,2013-02-07 09:16:00,
2013-02-07 04:21:00,72.3,63.0,30.09,SSE,157,2.1,8.2,72,0.00,,,0.00,Rainwise IP-100,2013-02-07 09:21:00,
2013-02-07 04:26:00,72.3,63.0,30.09,ESE,112,2.6,8.6,72,0.00,,,0.00,Rainwise IP-100,2013-02-07 09:26:00,
2013-02-07 04:32:00,72.3,63.0,30.09,ESE,112,1.6,6.3,72,0.00,,,0.00,Rainwise IP-100,2013-02-07 09:32:00,
2013-02-07 04:37:00,72.2,63.0,30.09,NNW,337,0.0,11.4,72,0.00,,,0.00,Rainwise IP-100,2013-02-07 09:37:00,
2013-02-07 04:42:00,72.2,63.0,30.09,East,90,3.7,10.0,72,0.00,,,0.00,Rainwise IP-100,2013-02-07 09:42:00,
2013-02-07 04:47:00,72.3,63.0,30.09,East,90,3.7,9.1,72,0.00,,,0.00,Rainwise IP-100,2013-02-07 09:47:00,
2013-02-07 04:52:00,72.3,63.0,30.09,East,90,1.6,8.4,72,0.00,,,0.00,Rainwise IP-100,2013-02-07 09:52:00,
2013-02-07 04:57:00,72.3,63.0,30.09,NNE,22,4.4,7.2,72,0.00,,,0.00,Rainwise IP-100,2013-02-07 09:57:00,
2013-02-07 05:02:00,72.2,63.0,30.09,ESE,112,4.7,8.4,72,0.00,,,0.00,Rainwise IP-100,2013-02-07 10:02:00,
2013-02-07 05:08:00,72.1,62.5,30.09,SE,135,6.5,7.7,72,0.00,,,0.00,Rainwise IP-100,2013-02-07 10:08:00,
2013-02-07 05:13:00,72.1,62.5,30.09,ENE,67,3.3,6.5,72,0.00,,,0.00,Rainwise IP-100,2013-02-07 10:13:00,
2013-02-07 05:18:00,72.2,63.0,30.09,East,90,5.1,7.5,72,0.00,,,0.00,Rainwise IP-100,2013-02-07 10:18:00,
2013-02-07 05:23:00,72.1,63.0,30.08,ESE,112,6.1,7.2,73,0.00,,,0.00,Rainwise IP-100,2013-02-07 10:23:00,
2013-02-07 05:28:00,72.1,62.5,30.09,SSW,202,2.8,6.1,72,0.00,,,0.00,Rainwise IP-100,2013-02-07 10:28:00,
2013-02-07 05:33:00,72.0,62.5,30.08,ESE,112,7.0,8.2,72,0.00,,,0.00,Rainwise IP-100,2013-02-07 10:33:00,
2013-02-07 05:38:00,72.1,62.0,30.08,ENE,67,3.3,10.7,71,0.00,,,0.00,Rainwise IP-100,2013-02-07 10:38:00,
2013-02-07 05:43:00,72.1,62.0,30.08,ESE,112,2.6,6.5,71,0.00,,,0.00,Rainwise IP-100,2013-02-07 10:43:00,
2013-02-07 05:49:00,72.2,63.0,30.09,ESE,112,6.3,7.9,72,0.00,,,0.00,Rainwise IP-100,2013-02-07 10:49:00,
2013-02-07 05:54:00,72.1,62.5,30.09,ENE,67,4.0,8.9,72,0.00,,,0.00,Rainwise IP-100,2013-02-07 10:54:00,
2013-02-07 05:59:00,72.1,63.0,30.09,ESE,112,5.4,10.0,73,0.00,,,0.00,Rainwise IP-100,2013-02-07 10:59:00,
2013-02-07 06:04:00,72.1,63.0,30.08,ESE,112,6.1,9.3,73,0.00,,,0.00,Rainwise IP-100,2013-02-07 11:04:00,
2013-02-07 06:09:00,72.1,63.0,30.08,SE,135,5.1,7.2,73,0.00,,,0.00,Rainwise IP-100,2013-02-07 11:09:00,
2013-02-07 06:14:00,72.2,63.5,30.08,ESE,112,3.7,10.5,74,0.00,,,0.00,Rainwise IP-100,2013-02-07 11:14:00,
2013-02-07 06:19:00,72.1,63.0,30.09,SSE,157,6.8,11.2,74,0.00,,,0.00,Rainwise IP-100,2013-02-07 11:19:00,
2013-02-07 06:25:00,72.1,63.0,30.09,ESE,112,7.5,12.8,73,0.00,,,0.00,Rainwise IP-100,2013-02-07 11:25:00,
2013-02-07 06:30:00,72.2,63.0,30.09,SE,135,4.7,11.2,73,0.00,,,0.00,Rainwise IP-100,2013-02-07 11:30:00,
2013-02-07 06:35:00,72.3,63.0,30.08,SSE,157,4.9,8.4,73,0.00,,,0.00,Rainwise IP-100,2013-02-07 11:35:00,
2013-02-07 06:40:00,72.4,63.5,30.09,ESE,112,1.2,10.7,74,0.00,,,0.00,Rainwise IP-100,2013-02-07 11:40:00,
2013-02-07 06:45:00,72.4,63.5,30.10,SE,135,6.5,11.4,74,0.00,,,0.00,Rainwise IP-100,2013-02-07 11:45:00,
2013-02-07 06:50:00,72.3,63.5,30.10,SSE,157,4.4,9.6,74,0.00,,,0.00,Rainwise IP-100,2013-02-07 11:50:00,
2013-02-07 06:55:00,72.4,64.0,30.10,ESE,112,7.9,8.6,75,0.00,,,0.00,Rainwise IP-100,2013-02-07 11:55:00,
2013-02-07 07:00:00,72.4,64.0,30.10,ESE,112,5.8,9.1,75,0.00,,,0.00,Rainwise IP-100,2013-02-07 12:00:00,
2013-02-07 07:06:00,72.3,63.5,30.10,ESE,112,5.1,8.2,74,0.00,,,0.00,Rainwise IP-100,2013-02-07 12:06:00,
2013-02-07 07:11:00,72.3,63.0,30.10,ESE,112,1.9,8.9,73,0.00,,,0.00,Rainwise IP-100,2013-02-07 12:11:00,
2013-02-07 07:16:00,72.4,63.0,30.11,ESE,112,1.4,8.2,73,0.00,,,0.00,Rainwise IP-100,2013-02-07 12:16:00,
2013-02-07 07:21:00,72.4,63.5,30.11,SE,135,5.6,7.7,74,0.00,,,0.00,Rainwise IP-100,2013-02-07 12:21:00,
2013-02-07 07:26:00,72.3,64.0,30.11,ESE,112,6.3,8.4,75,0.00,,,0.00,Rainwise IP-100,2013-02-07 12:26:00,
2013-02-07 07:31:00,72.4,63.5,30.11,SSE,157,4.2,12.6,74,0.00,,,0.00,Rainwise IP-100,2013-02-07 12:31:00,
2013-02-07 07:36:00,72.4,63.5,30.10,ESE,112,4.0,12.1,74,0.00,,,0.00,Rainwise IP-100,2013-02-07 12:36:00,
2013-02-07 07:42:00,72.4,63.0,30.10,SE,135,7.2,12.1,73,0.00,,,0.00,Rainwise IP-100,2013-02-07 12:42:00,
2013-02-07 07:47:00,72.6,63.5,30.10,SSE,157,3.0,8.4,73,0.00,,,0.00,Rainwise IP-100,2013-02-07 12:47:00,
2013-02-07 07:52:00,72.9,64.0,30.11,SSE,157,6.8,10.3,73,0.00,,,0.00,Rainwise IP-100,2013-02-07 12:52:00,
2013-02-07 07:57:00,73.1,64.0,30.11,ESE,112,6.8,9.1,73,0.00,,,0.00,Rainwise IP-100,2013-02-07 12:57:00,
2013-02-07 08:02:00,73.1,64.0,30.11,ESE,112,6.3,10.0,73,0.00,,,0.00,Rainwise IP-100,2013-02-07 13:02:00,
2013-02-07 08:07:00,73.0,64.0,30.12,South,180,2.1,10.7,73,0.00,,,0.00,Rainwise IP-100,2013-02-07 13:07:00,
2013-02-07 08:12:00,73.1,64.0,30.13,ENE,67,2.6,6.5,73,0.00,,,0.00,Rainwise IP-100,2013-02-07 13:12:00,
2013-02-07 08:17:00,73.4,64.0,30.12,SSE,157,1.2,8.2,72,0.00,,,0.00,Rainwise IP-100,2013-02-07 13:17:00,
2013-02-07 08:23:00,74.0,64.0,30.12,ESE,112,2.3,11.0,71,0.00,,,0.00,Rainwise IP-100,2013-02-07 13:23:00,
2013-02-07 08:28:00,74.3,64.0,30.12,ESE,112,5.4,9.1,70,0.00,,,0.00,Rainwise IP-100,2013-02-07 13:28:00,
2013-02-07 08:33:00,74.1,63.5,30.12,SE,135,6.8,11.4,69,0.00,,,0.00,Rainwise IP-100,2013-02-07 13:33:00,
2013-02-07 08:38:00,74.1,64.0,30.12,SSE,157,3.7,9.3,70,0.00,,,0.00,Rainwise IP-100,2013-02-07 13:38:00,
2013-02-07 08:43:00,74.5,65.0,30.12,ESE,112,9.8,9.8,71,0.00,,,0.00,Rainwise IP-100,2013-02-07 13:43:00,
2013-02-07 08:48:00,74.7,64.5,30.13,South,180,1.6,10.5,70,0.00,,,0.00,Rainwise IP-100,2013-02-07 13:48:00,
2013-02-07 08:53:00,74.9,65.0,30.12,East,90,1.6,7.9,70,0.00,,,0.00,Rainwise IP-100,2013-02-07 13:53:00,
2013-02-07 08:59:00,75.1,65.0,30.12,SE,135,6.8,10.0,70,0.00,,,0.00,Rainwise IP-100,2013-02-07 13:59:00,
2013-02-07 09:04:00,74.9,65.0,30.12,SSE,157,6.1,9.3,70,0.00,,,0.00,Rainwise IP-100,2013-02-07 14:04:00,
2013-02-07 09:09:00,75.1,65.0,30.13,SE,135,5.8,8.4,71,0.00,,,0.00,Rainwise IP-100,2013-02-07 14:09:00,
2013-02-07 09:14:00,75.2,65.0,30.13,SSE,157,2.8,10.0,71,0.00,,,0.00,Rainwise IP-100,2013-02-07 14:14:00,
2013-02-07 09:19:00,75.4,65.0,30.13,SE,135,6.3,7.9,70,0.00,,,0.00,Rainwise IP-100,2013-02-07 14:19:00,
2013-02-07 09:24:00,75.6,64.5,30.13,SSE,157,5.1,8.4,69,0.00,,,0.00,Rainwise IP-100,2013-02-07 14:24:00,
2013-02-07 09:29:00,75.4,65.0,30.14,SE,135,4.7,10.0,70,0.00,,,0.00,Rainwise IP-100,2013-02-07 14:29:00,
2013-02-07 09:34:00,75.4,65.0,30.13,SE,135,5.1,10.0,70,0.00,,,0.00,Rainwise IP-100,2013-02-07 14:34:00,
2013-02-07 09:40:00,75.9,65.5,30.12,South,180,4.4,10.0,70,0.00,,,0.00,Rainwise IP-100,2013-02-07 14:40:00,
2013-02-07 09:45:00,76.0,65.0,30.12,ESE,112,6.5,11.0,69,0.00,,,0.00,Rainwise IP-100,2013-02-07 14:45:00,
2013-02-07 09:46:00,76.0,65.0,30.13,SSE,157,6.3,9.8,69,0.00,,,0.00,Rainwise IP-100,2013-02-07 14:46:00,
2013-02-07 09:52:00,75.7,64.5,30.12,SSW,202,5.4,10.7,69,0.00,,,0.00,Rainwise IP-100,2013-02-07 14:52:00,
2013-02-07 09:57:00,75.6,65.0,30.13,SSE,157,3.7,10.5,70,0.00,,,0.00,Rainwise IP-100,2013-02-07 14:57:00,
2013-02-07 10:02:00,75.8,65.5,30.13,SE,135,6.8,10.3,70,0.00,,,0.00,Rainwise IP-100,2013-02-07 15:02:00,
2013-02-07 10:07:00,76.0,65.0,30.14,SSE,157,3.0,8.2,69,0.00,,,0.00,Rainwise IP-100,2013-02-07 15:07:00,
2013-02-07 10:12:00,76.0,64.0,30.13,SE,135,9.3,9.3,67,0.00,,,0.00,Rainwise IP-100,2013-02-07 15:12:00,
2013-02-07 10:17:00,76.2,65.0,30.13,SE,135,3.3,11.7,68,0.00,,,0.00,Rainwise IP-100,2013-02-07 15:17:00,
2013-02-07 10:22:00,76.5,65.0,30.13,ESE,112,8.4,11.2,67,0.00,,,0.00,Rainwise IP-100,2013-02-07 15:22:00,
2013-02-07 10:27:00,76.7,65.0,30.13,SSE,157,4.0,9.3,67,0.00,,,0.00,Rainwise IP-100,2013-02-07 15:27:00,
2013-02-07 10:32:00,76.7,64.5,30.13,SSE,157,4.0,9.1,66,0.00,,,0.00,Rainwise IP-100,2013-02-07 15:32:00,
2013-02-07 10:38:00,76.5,64.5,30.12,SE,135,1.6,9.8,66,0.00,,,0.00,Rainwise IP-100,2013-02-07 15:38:00,
2013-02-07 10:43:00,76.8,64.5,30.13,ESE,112,4.7,10.0,66,0.00,,,0.00,Rainwise IP-100,2013-02-07 15:43:00,
2013-02-07 10:48:00,76.8,64.5,30.12,SSE,157,2.8,10.3,66,0.00,,,0.00,Rainwise IP-100,2013-02-07 15:48:00,
2013-02-07 10:53:00,76.8,65.0,30.12,ESE,112,0.0,9.6,67,0.00,,,0.00,Rainwise IP-100,2013-02-07 15:53:00,
2013-02-07 10:58:00,77.5,65.5,30.12,SE,135,3.5,7.2,66,0.00,,,0.00,Rainwise IP-100,2013-02-07 15:58:00,
2013-02-07 11:03:00,77.5,65.0,30.12,SSE,157,7.9,8.9,65,0.00,,,0.00,Rainwise IP-100,2013-02-07 16:03:00,
2013-02-07 11:08:00,77.1,65.5,30.12,East,90,2.8,10.7,67,0.00,,,0.00,Rainwise IP-100,2013-02-07 16:08:00,
2013-02-07 11:14:00,77.5,66.0,30.12,SSE,157,1.6,6.3,67,0.00,,,0.00,Rainwise IP-100,2013-02-07 16:14:00,
2013-02-07 11:19:00,77.9,65.5,30.11,ESE,112,4.0,9.1,65,0.00,,,0.00,Rainwise IP-100,2013-02-07 16:19:00,
2013-02-07 11:24:00,77.7,65.0,30.11,SSE,157,1.4,8.6,65,0.00,,,0.00,Rainwise IP-100,2013-02-07 16:24:00,
2013-02-07 11:29:00,77.9,66.0,30.10,SSE,157,6.1,7.9,66,0.00,,,0.00,Rainwise IP-100,2013-02-07 16:29:00,
2013-02-07 11:34:00,78.1,66.0,30.11,SE,135,9.8,9.8,66,0.00,,,0.00,Rainwise IP-100,2013-02-07 16:34:00,
2013-02-07 11:39:00,77.7,65.5,30.10,ESE,112,4.4,9.8,66,0.00,,,0.00,Rainwise IP-100,2013-02-07 16:39:00,
2013-02-07 11:44:00,77.5,65.5,30.10,SSE,157,7.5,9.6,66,0.00,,,0.00,Rainwise IP-100,2013-02-07 16:44:00,
2013-02-07 11:49:00,77.3,66.0,30.10,South,180,3.0,13.1,67,0.00,,,0.00,Rainwise IP-100,2013-02-07 16:49:00,
2013-02-07 11:53:00,77.2,66.0,30.09,ESE,112,7.7,11.4,67,0.00,,,0.00,Rainwise IP-100,2013-02-07 16:53:00,
2013-02-07 11:58:00,77.2,66.0,30.09,SE,135,6.3,10.5,67,0.00,,,0.00,Rainwise IP-100,2013-02-07 16:58:00,
2013-02-07 12:03:00,77.0,65.5,30.09,SSE,157,3.5,11.4,67,0.00,,,0.00,Rainwise IP-100,2013-02-07 17:03:00,
2013-02-07 12:08:00,76.8,65.0,30.09,ESE,112,6.1,10.3,67,0.00,,,0.00,Rainwise IP-100,2013-02-07 17:08:00,
2013-02-07 12:13:00,76.8,65.0,30.08,SSW,202,4.2,12.1,67,0.00,,,0.00,Rainwise IP-100,2013-02-07 17:13:00,
2013-02-07 12:19:00,77.2,66.3,30.08,ESE,112,0.0,8.2,68,0.00,,,0.00,Rainwise IP-100,2013-02-07 17:19:00,
2013-02-07 12:24:00,77.6,66.0,30.08,ESE,112,3.3,10.7,67,0.00,,,0.00,Rainwise IP-100,2013-02-07 17:24:00,
2013-02-07 12:29:00,77.3,65.5,30.07,ESE,112,8.4,14.2,66,0.00,,,0.00,Rainwise IP-100,2013-02-07 17:29:00,
2013-02-07 12:34:00,76.8,65.0,30.07,ESE,112,4.4,12.1,67,0.00,,,0.00,Rainwise IP-100,2013-02-07 17:34:00,
2013-02-07 12:39:00,76.6,65.5,30.07,ESE,112,10.3,11.9,68,0.00,,,0.00,Rainwise IP-100,2013-02-07 17:39:00,
2013-02-07 12:44:00,76.7,65.0,30.06,SSE,157,4.7,11.4,67,0.00,,,0.00,Rainwise IP-100,2013-02-07 17:44:00,
2013-02-07 12:49:00,77.0,65.5,30.06,SE,135,6.1,10.5,67,0.00,,,0.00,Rainwise IP-100,2013-02-07 17:49:00,
2013-02-07 12:55:00,76.8,65.5,30.06,WNW,292,0.0,13.5,68,0.00,,,0.00,Rainwise IP-100,2013-02-07 17:55:00,
2013-02-07 13:00:00,77.0,65.5,30.05,SSE,157,4.4,11.7,67,0.00,,,0.00,Rainwise IP-100,2013-02-07 18:00:00,
2013-02-07 13:05:00,77.0,65.5,30.05,SSE,157,5.4,12.4,67,0.00,,,0.00,Rainwise IP-100,2013-02-07 18:05:00,
2013-02-07 13:10:00,76.7,65.0,30.05,ESE,112,4.7,12.4,67,0.00,,,0.00,Rainwise IP-100,2013-02-07 18:10:00,
2013-02-07 13:15:00,76.8,65.0,30.04,South,180,7.7,12.6,67,0.00,,,0.00,Rainwise IP-100,2013-02-07 18:15:00,
2013-02-07 13:20:00,76.8,65.0,30.04,ESE,112,6.8,11.4,67,0.00,,,0.00,Rainwise IP-100,2013-02-07 18:20:00,
2013-02-07 13:25:00,76.7,65.0,30.04,SSW,202,4.7,11.4,67,0.00,,,0.00,Rainwise IP-100,2013-02-07 18:25:00,
2013-02-07 13:30:00,76.7,64.5,30.04,ESE,112,2.3,12.6,66,0.00,,,0.00,Rainwise IP-100,2013-02-07 18:30:00,
2013-02-07 13:35:00,76.7,65.0,30.04,SSE,157,3.3,11.7,67,0.00,,,0.00,Rainwise IP-100,2013-02-07 18:35:00,
2013-02-07 13:41:00,76.8,65.0,30.03,ESE,112,8.9,11.4,67,0.00,,,0.00,Rainwise IP-100,2013-02-07 18:41:00,
2013-02-07 13:46:00,76.6,64.5,30.03,ESE,112,11.4,11.4,66,0.00,,,0.00,Rainwise IP-100,2013-02-07 18:46:00,
2013-02-07 13:51:00,76.4,65.0,30.02,ESE,112,6.8,11.4,67,0.00,,,0.00,Rainwise IP-100,2013-02-07 18:51:00,
2013-02-07 13:56:00,76.3,64.5,30.03,SSE,157,8.2,14.7,67,0.00,,,0.00,Rainwise IP-100,2013-02-07 18:56:00,
2013-02-07 14:01:00,76.3,64.5,30.03,ESE,112,6.8,11.7,67,0.00,,,0.00,Rainwise IP-100,2013-02-07 19:01:00,
2013-02-07 14:06:00,76.5,64.5,30.03,SSE,157,4.7,11.9,66,0.00,,,0.00,Rainwise IP-100,2013-02-07 19:06:00,
2013-02-07 14:11:00,76.5,64.5,30.03,East,90,5.6,11.4,66,0.00,,,0.00,Rainwise IP-100,2013-02-07 19:11:00,
2013-02-07 14:17:00,76.4,64.5,30.03,SSE,157,4.9,12.4,66,0.00,,,0.00,Rainwise IP-100,2013-02-07 19:17:00,
2013-02-07 14:22:00,76.6,64.5,30.03,SSE,157,5.4,10.0,66,0.00,,,0.00,Rainwise IP-100,2013-02-07 19:22:00,
2013-02-07 14:27:00,76.6,64.5,30.03,SSW,202,3.0,13.5,66,0.00,,,0.00,Rainwise IP-100,2013-02-07 19:27:00,
2013-02-07 14:32:00,76.7,64.5,30.03,SSE,157,7.5,10.3,66,0.00,,,0.00,Rainwise IP-100,2013-02-07 19:32:00,
2013-02-07 14:37:00,76.9,65.5,30.02,SE,135,4.7,8.9,67,0.00,,,0.00,Rainwise IP-100,2013-02-07 19:37:00,
2013-02-07 14:42:00,77.0,65.5,30.02,SSE,157,3.7,12.8,67,0.00,,,0.00,Rainwise IP-100,2013-02-07 19:42:00,
2013-02-07 14:47:00,76.9,65.5,30.02,South,180,7.5,11.4,67,0.00,,,0.00,Rainwise IP-100,2013-02-07 19:47:00,
2013-02-07 14:52:00,76.7,65.5,30.02,SSE,157,3.3,11.2,68,0.00,,,0.00,Rainwise IP-100,2013-02-07 19:52:00,
2013-02-07 14:58:00,76.7,65.5,30.02,SSE,157,8.4,11.2,68,0.00,,,0.00,Rainwise IP-100,2013-02-07 19:58:00,
2013-02-07 15:03:00,76.7,65.5,30.02,ESE,112,7.9,11.4,68,0.00,,,0.00,Rainwise IP-100,2013-02-07 20:03:00,
2013-02-07 15:08:00,76.6,65.5,30.02,ESE,112,10.7,13.5,68,0.00,,,0.00,Rainwise IP-100,2013-02-07 20:08:00,
2013-02-07 15:13:00,76.6,65.5,30.02,SSE,157,7.7,13.1,68,0.00,,,0.00,Rainwise IP-100,2013-02-07 20:13:00,
2013-02-07 15:18:00,76.5,65.5,30.01,South,180,4.4,10.7,69,0.00,,,0.00,Rainwise IP-100,2013-02-07 20:18:00,
2013-02-07 15:23:00,76.5,65.5,30.01,South,180,8.2,11.0,69,0.00,,,0.00,Rainwise IP-100,2013-02-07 20:23:00,
2013-02-07 15:28:00,76.4,65.5,30.01,ESE,112,7.7,13.1,69,0.00,,,0.00,Rainwise IP-100,2013-02-07 20:28:00,
2013-02-07 15:34:00,76.2,65.5,30.01,ESE,112,7.7,12.8,69,0.00,,,0.00,Rainwise IP-100,2013-02-07 20:34:00,
2013-02-07 15:39:00,76.0,65.5,30.01,ESE,112,12.4,14.0,70,0.00,,,0.00,Rainwise IP-100,2013-02-07 20:39:00,
2013-02-07 15:44:00,75.9,66.0,30.00,ESE,112,10.0,13.1,71,0.00,,,0.00,Rainwise IP-100,2013-02-07 20:44:00,
2013-02-07 15:49:00,76.0,66.0,30.01,SSE,157,5.6,11.4,71,0.00,,,0.00,Rainwise IP-100,2013-02-07 20:49:00,
2013-02-07 15:54:00,76.2,66.3,30.01,SSE,157,5.1,9.8,71,0.00,,,0.00,Rainwise IP-100,2013-02-07 20:54:00,
2013-02-07 15:59:00,76.3,66.0,30.01,SSE,157,3.5,12.4,70,0.00,,,0.00,Rainwise IP-100,2013-02-07 20:59:00,
2013-02-07 16:04:00,76.2,66.0,30.01,South,180,5.4,14.0,70,0.00,,,0.00,Rainwise IP-100,2013-02-07 21:04:00,
2013-02-07 16:09:00,76.1,66.0,30.01,ESE,112,7.2,12.1,71,0.00,,,0.00,Rainwise IP-100,2013-02-07 21:09:00,
2013-02-07 16:14:00,76.0,66.0,30.01,ESE,112,8.2,11.2,71,0.00,,,0.00,Rainwise IP-100,2013-02-07 21:14:00,
2013-02-07 16:20:00,76.0,66.0,30.01,SSW,202,6.1,10.7,71,0.00,,,0.00,Rainwise IP-100,2013-02-07 21:20:00,
2013-02-07 16:25:00,76.1,66.0,30.01,South,180,6.8,12.6,71,0.00,,,0.00,Rainwise IP-100,2013-02-07 21:25:00,
2013-02-07 16:30:00,76.1,66.0,30.00,ESE,112,7.9,10.7,71,0.00,,,0.00,Rainwise IP-100,2013-02-07 21:30:00,
2013-02-07 16:35:00,76.2,66.3,30.00,South,180,9.3,9.8,71,0.00,,,0.00,Rainwise IP-100,2013-02-07 21:35:00,
2013-02-07 16:40:00,76.2,66.7,30.00,SE,135,6.5,9.8,72,0.00,,,0.00,Rainwise IP-100,2013-02-07 21:40:00,
2013-02-07 16:45:00,76.1,66.3,30.01,SSE,157,6.8,11.4,72,0.00,,,0.00,Rainwise IP-100,2013-02-07 21:45:00,
2013-02-07 16:50:00,76.0,66.3,30.01,SE,135,7.5,12.1,72,0.00,,,0.00,Rainwise IP-100,2013-02-07 21:50:00,
2013-02-07 16:56:00,75.8,66.3,30.01,SSE,157,2.1,11.2,72,0.00,,,0.00,Rainwise IP-100,2013-02-07 21:56:00,
2013-02-07 17:01:00,75.7,66.3,30.01,ESE,112,6.5,12.6,73,0.00,,,0.00,Rainwise IP-100,2013-02-07 22:01:00,
2013-02-07 17:06:00,75.6,66.3,30.01,ESE,112,2.8,11.2,73,0.00,,,0.00,Rainwise IP-100,2013-02-07 22:06:00,
2013-02-07 17:11:00,75.5,66.3,30.01,SSE,157,7.7,12.1,73,0.00,,,0.00,Rainwise IP-100,2013-02-07 22:11:00,
2013-02-07 17:16:00,75.4,66.7,30.01,SSE,157,5.4,13.1,74,0.00,,,0.00,Rainwise IP-100,2013-02-07 22:16:00,
2013-02-07 17:21:00,75.3,66.3,30.00,SSW,202,3.0,11.7,73,0.00,,,0.00,Rainwise IP-100,2013-02-07 22:21:00,
2013-02-07 17:26:00,75.1,66.0,30.01,SSE,157,7.5,12.6,73,0.00,,,0.00,Rainwise IP-100,2013-02-07 22:26:00,
2013-02-07 17:31:00,75.1,66.3,30.01,SSE,157,5.6,11.2,74,0.00,,,0.00,Rainwise IP-100,2013-02-07 22:31:00,
2013-02-07 17:37:00,75.1,66.3,30.01,South,180,3.0,11.9,74,0.00,,,0.00,Rainwise IP-100,2013-02-07 22:37:00,
2013-02-07 17:42:00,74.8,66.0,30.01,SSE,157,3.5,12.1,73,0.00,,,0.00,Rainwise IP-100,2013-02-07 22:42:00,
2013-02-07 17:47:00,74.7,66.0,30.01,South,180,3.5,9.6,73,0.00,,,0.00,Rainwise IP-100,2013-02-07 22:47:00,
2013-02-07 17:52:00,74.5,66.0,30.01,SSE,157,2.8,9.8,74,0.00,,,0.00,Rainwise IP-100,2013-02-07 22:52:00,
2013-02-07 17:57:00,74.3,66.0,30.02,SSE,157,3.3,11.2,74,0.00,,,0.00,Rainwise IP-100,2013-02-07 22:57:00,
2013-02-07 18:02:00,74.2,66.0,30.01,South,180,4.4,13.5,74,0.00,,,0.00,Rainwise IP-100,2013-02-07 23:02:00,
2013-02-07 18:07:00,74.1,65.5,30.02,SSE,157,7.0,10.3,74,0.00,,,0.00,Rainwise IP-100,2013-02-07 23:07:00,
2013-02-07 18:13:00,74.0,65.5,30.02,SSW,202,4.0,10.5,74,0.00,,,0.00,Rainwise IP-100,2013-02-07 23:13:00,
2013-02-07 18:18:00,73.8,65.0,30.02,South,180,5.8,9.8,74,0.00,,,0.00,Rainwise IP-100,2013-02-07 23:18:00,
2013-02-07 18:23:00,73.7,65.0,30.02,SSE,157,6.3,9.6,74,0.00,,,0.00,Rainwise IP-100,2013-02-07 23:23:00,
2013-02-07 18:28:00,73.7,65.0,30.02,SSW,202,6.5,9.8,74,0.00,,,0.00,Rainwise IP-100,2013-02-07 23:28:00,
2013-02-07 18:33:00,73.8,65.0,30.02,South,180,4.7,14.0,74,0.00,,,0.00,Rainwise IP-100,2013-02-07 23:33:00,
2013-02-07 18:38:00,73.7,65.0,30.02,South,180,4.2,6.8,74,0.00,,,0.00,Rainwise IP-100,2013-02-07 23:38:00,
2013-02-07 18:43:00,73.6,65.0,30.02,SSE,157,5.1,8.4,74,0.00,,,0.00,Rainwise IP-100,2013-02-07 23:43:00,
2013-02-07 18:48:00,73.6,65.0,30.02,South,180,3.7,9.1,74,0.00,,,0.00,Rainwise IP-100,2013-02-07 23:48:00,
2013-02-07 18:54:00,73.6,65.5,30.02,South,180,6.8,9.3,75,0.00,,,0.00,Rainwise IP-100,2013-02-07 23:54:00,
2013-02-07 18:59:00,73.5,65.5,30.02,SSE,157,4.4,8.2,75,0.00,,,0.00,Rainwise IP-100,2013-02-07 23:59:00,
2013-02-07 19:04:00,73.5,65.5,30.02,SSW,202,4.2,7.9,75,0.00,,,0.00,Rainwise IP-100,2013-02-08 00:04:00,
2013-02-07 19:09:00,73.5,65.0,30.03,SE,135,4.2,12.4,74,0.00,,,0.00,Rainwise IP-100,2013-02-08 00:09:00,
2013-02-07 19:14:00,73.7,65.0,30.03,South,180,6.3,8.6,74,0.00,,,0.00,Rainwise IP-100,2013-02-08 00:14:00,
2013-02-07 19:19:00,73.7,65.0,30.04,SSE,157,5.4,8.2,74,0.00,,,0.00,Rainwise IP-100,2013-02-08 00:19:00,
2013-02-07 19:24:00,73.6,65.0,30.04,South,180,3.7,7.7,74,0.00,,,0.00,Rainwise IP-100,2013-02-08 00:24:00,
2013-02-07 19:30:00,73.6,65.0,30.04,SSE,157,4.9,7.9,74,0.00,,,0.00,Rainwise IP-100,2013-02-08 00:30:00,
2013-02-07 19:35:00,73.7,65.0,30.04,SSE,157,3.5,7.7,74,0.00,,,0.00,Rainwise IP-100,2013-02-08 00:35:00,
2013-02-07 19:40:00,73.6,65.5,30.04,South,180,2.8,4.9,75,0.00,,,0.00,Rainwise IP-100,2013-02-08 00:40:00,
2013-02-07 19:45:00,73.4,65.0,30.05,South,180,2.3,5.1,75,0.00,,,0.00,Rainwise IP-100,2013-02-08 00:45:00,
2013-02-07 19:50:00,73.4,65.5,30.05,South,180,1.6,6.1,76,0.00,,,0.00,Rainwise IP-100,2013-02-08 00:50:00,
2013-02-07 19:55:00,73.4,65.5,30.04,SSE,157,3.5,6.8,76,0.00,,,0.00,Rainwise IP-100,2013-02-08 00:55:00,
2013-02-07 20:00:00,73.4,65.5,30.05,SSW,202,3.7,5.4,76,0.00,,,0.00,Rainwise IP-100,2013-02-08 01:00:00,
2013-02-07 20:05:00,73.4,65.5,30.05,SSW,202,4.7,8.4,76,0.00,,,0.00,Rainwise IP-100,2013-02-08 01:05:00,
2013-02-07 20:11:00,73.3,65.5,30.05,SSW,202,4.2,7.0,76,0.00,,,0.00,Rainwise IP-100,2013-02-08 01:11:00,
2013-02-07 20:16:00,73.2,66.0,30.05,South,180,2.6,5.4,77,0.00,,,0.00,Rainwise IP-100,2013-02-08 01:16:00,
2013-02-07 20:21:00,73.2,66.0,30.05,South,180,2.3,4.9,77,0.00,,,0.00,Rainwise IP-100,2013-02-08 01:21:00,
2013-02-07 20:26:00,73.0,65.5,30.05,South,180,4.4,4.9,77,0.00,,,0.00,Rainwise IP-100,2013-02-08 01:26:00,
2013-02-07 20:31:00,72.8,65.5,30.06,SSW,202,3.0,5.8,78,0.00,,,0.00,Rainwise IP-100,2013-02-08 01:31:00,
2013-02-07 20:36:00,72.7,65.5,30.06,South,180,2.3,4.4,78,0.00,,,0.00,Rainwise IP-100,2013-02-08 01:36:00,
2013-02-07 20:41:00,72.6,65.5,30.05,South,180,4.4,4.4,78,0.00,,,0.00,Rainwise IP-100,2013-02-08 01:41:00,
2013-02-07 20:47:00,72.5,65.5,30.06,South,180,4.4,5.1,78,0.00,,,0.00,Rainwise IP-100,2013-02-08 01:47:00,
2013-02-07 20:52:00,72.5,65.5,30.06,SSW,202,3.7,6.8,78,0.00,,,0.00,Rainwise IP-100,2013-02-08 01:52:00,
2013-02-07 20:57:00,72.4,65.5,30.06,South,180,5.4,6.3,79,0.00,,,0.00,Rainwise IP-100,2013-02-08 01:57:00,
2013-02-07 21:02:00,72.3,65.5,30.06,South,180,5.6,7.5,79,0.00,,,0.00,Rainwise IP-100,2013-02-08 02:02:00,
2013-02-07 21:07:00,72.4,65.0,30.06,SSW,202,4.2,7.0,78,0.00,,,0.00,Rainwise IP-100,2013-02-08 02:07:00,
2013-02-07 21:12:00,72.4,65.0,30.06,SSW,202,3.5,7.5,78,0.00,,,0.00,Rainwise IP-100,2013-02-08 02:12:00,
2013-02-07 21:17:00,72.4,65.0,30.06,South,180,4.7,7.2,77,0.00,,,0.00,Rainwise IP-100,2013-02-08 02:17:00,
2013-02-07 21:22:00,72.4,64.5,30.06,SSW,202,5.1,7.0,76,0.00,,,0.00,Rainwise IP-100,2013-02-08 02:22:00,
2013-02-07 21:27:00,72.4,64.0,30.06,SSW,202,4.4,7.5,75,0.00,,,0.00,Rainwise IP-100,2013-02-08 02:27:00,
2013-02-07 21:33:00,72.3,63.5,30.06,SSW,202,2.3,7.2,74,0.00,,,0.00,Rainwise IP-100,2013-02-08 02:33:00,
2013-02-07 21:38:00,72.2,63.0,30.06,SSW,202,2.1,4.2,72,0.00,,,0.00,Rainwise IP-100,2013-02-08 02:38:00,
2013-02-07 21:43:00,72.0,62.5,30.06,SSW,202,3.3,6.3,72,0.00,,,0.00,Rainwise IP-100,2013-02-08 02:43:00,
2013-02-07 21:48:00,71.7,62.0,30.06,SSW,202,0.0,4.4,72,0.00,,,0.00,Rainwise IP-100,2013-02-08 02:48:00,
2013-02-07 21:53:00,71.7,62.0,30.06,South,180,4.0,5.4,72,0.00,,,0.00,Rainwise IP-100,2013-02-08 02:53:00,
2013-02-07 21:58:00,71.8,62.0,30.06,SSE,157,2.1,5.8,72,0.00,,,0.00,Rainwise IP-100,2013-02-08 02:58:00,
2013-02-07 22:03:00,71.7,62.0,30.06,SSW,202,4.2,6.5,72,0.00,,,0.00,Rainwise IP-100,2013-02-08 03:03:00,
2013-02-07 22:09:00,71.6,62.5,30.05,SSW,202,3.5,6.8,73,0.00,,,0.00,Rainwise IP-100,2013-02-08 03:09:00,
2013-02-07 22:14:00,71.6,62.5,30.06,SSW,202,5.1,8.9,73,0.00,,,0.00,Rainwise IP-100,2013-02-08 03:14:00,
2013-02-07 22:19:00,71.7,62.5,30.05,South,180,3.0,7.5,73,0.00,,,0.00,Rainwise IP-100,2013-02-08 03:19:00,
2013-02-07 22:24:00,71.7,62.5,30.04,South,180,5.8,7.9,73,0.00,,,0.00,Rainwise IP-100,2013-02-08 03:24:00,
2013-02-07 22:29:00,71.7,63.0,30.05,SSW,202,6.3,8.6,74,0.00,,,0.00,Rainwise IP-100,2013-02-08 03:29:00,
2013-02-07 22:34:00,71.7,63.0,30.05,SSW,202,5.1,6.8,74,0.00,,,0.00,Rainwise IP-100,2013-02-08 03:34:00,
2013-02-07 22:39:00,71.8,63.5,30.05,SSW,202,4.2,10.0,75,0.00,,,0.00,Rainwise IP-100,2013-02-08 03:39:00,
2013-02-07 22:44:00,71.9,63.5,30.05,SSW,202,4.7,9.1,75,0.00,,,0.00,Rainwise IP-100,2013-02-08 03:44:00,
2013-02-07 22:50:00,71.9,63.5,30.05,SSW,202,7.7,9.6,75,0.00,,,0.00,Rainwise IP-100,2013-02-08 03:50:00,
2013-02-07 22:55:00,71.9,64.0,30.04,South,180,7.7,11.2,76,0.00,,,0.00,Rainwise IP-100,2013-02-08 03:55:00,
2013-02-07 23:00:00,71.9,64.0,30.04,SSW,202,4.9,10.0,76,0.00,,,0.00,Rainwise IP-100,2013-02-08 04:00:00,
2013-02-07 23:05:00,71.8,64.0,30.05,SSW,202,3.5,8.9,77,0.00,,,0.00,Rainwise IP-100,2013-02-08 04:05:00,
2013-02-07 23:10:00,71.6,64.0,30.05,SSW,202,5.6,9.6,77,0.00,,,0.00,Rainwise IP-100,2013-02-08 04:10:00,
2013-02-07 23:15:00,71.6,64.5,30.03,SSE,157,6.1,10.5,78,0.00,,,0.00,Rainwise IP-100,2013-02-08 04:15:00,
2013-02-07 23:20:00,71.6,65.0,30.03,South,180,7.9,10.5,79,0.00,,,0.00,Rainwise IP-100,2013-02-08 04:20:00,
2013-02-07 23:26:00,71.5,65.0,30.04,SSW,202,5.6,10.3,80,0.00,,,0.00,Rainwise IP-100,2013-02-08 04:26:00,
2013-02-07 23:31:00,71.5,65.0,30.03,South,180,4.7,8.2,80,0.00,,,0.00,Rainwise IP-100,2013-02-08 04:31:00,
2013-02-07 23:36:00,71.5,65.0,30.03,SSW,202,5.6,7.0,80,0.00,,,0.00,Rainwise IP-100,2013-02-08 04:36:00,
2013-02-07 23:41:00,71.4,65.0,30.03,South,180,3.7,7.7,80,0.00,,,0.00,Rainwise IP-100,2013-02-08 04:41:00,
2013-02-07 23:46:00,71.2,65.0,30.03,SSW,202,4.2,7.9,81,0.00,,,0.00,Rainwise IP-100,2013-02-08 04:46:00,
2013-02-07 23:51:00,71.2,65.5,30.02,SSW,202,7.0,7.2,82,0.00,,,0.00,Rainwise IP-100,2013-02-08 04:51:00,
2013-02-07 23:56:00,71.2,65.5,30.03,SSW,202,6.8,10.5,82,0.00,,,0.00,Rainwise IP-100,2013-02-08 04:56:00,